User: anonymous   Login
Location: Unspecified
(0.0000°N, 0.0000°E)
Time: 16:07:15
(UTC+02:00)
Language:

Cosmos 1125 Rocket - Orbit

View from above orbital plane
View from above orbital plane
View from above satellite
View from above satellite

Ground track
Ground track

The orbit data is extracted from the following two-line orbital elements,

1 11511U 79078B   16207.53113404  .00000115  00000-0  47764-4 0  9996
2 11511  74.0351 195.6698 0015275 164.0044 196.1595 14.36722060931701
Epoch (UTC): 25 July 2016 12:44:49
Eccentricity: 0.0015275
inclination: 74.0351°
perigee height: 758 km
apogee height: 780 km
right ascension of ascending node: 195.6698°
argument of perigee: 164.0044°
revolutions per day: 14.36722060
mean anomaly at epoch: 196.1595°
orbit number at epoch: 93170

The dashed part of the orbit path shows where the satellite is in the earth's shadow,  

DLR